Houlton, ME

1:57 AM EDT on March 30, 2017 (GMT -0400)
Houlton International

Weather History for KHUL - December, 2012

Change the Weather History Date:

Sunday, December 2, 2012

  Actual Average Record
Temperature  
Mean Temperature 36 °F 25 °F  
Max Temperature 49 °F 34 °F 52 °F (1996)
Min Temperature 22 °F 17 °F -13 °F (1989)
Degree Days  
Heating Degree Days 29 40  
Month to date heating degree days 83 79  
Since 1 July heating degree days 1952 2187  
Cooling Degree Days 0 0  
Month to date cooling degree days 0 0  
Year to date cooling degree days 277 191  
Moisture  
Dew Point 35 °F    
Average Humidity 73    
Maximum Humidity 93    
Minimum Humidity 52    
Precipitation  
Precipitation 0.35 in 0.13 in 1.03 in (2005)
Month to date precipitation 0.35 0.25  
Year to date precipitation 43.06 36.94  
Snow  
Snow 0.00 in 0.50 in 2.00 in (1966)
Snow Depth 0.00 in    
Sea Level Pressure  
Sea Level Pressure 30.20 in    
Wind  
Wind Speed 8 mph (South)    
Max Wind Speed 18 mph    
Max Gust Speed 25 mph    
Visibility 5 miles    
Events Rain , Snow    
T = Trace of Precipitation, MM = Missing Value Source: NWS Daily Summary

Daily Weather History Graph

Daily Weather History Graph

Search for Another Location

Airport or City:

Trip Planner

Search our weather history database for the weather conditions in past years. The results will help you decide how hot, cold, wet, or windy it might be!

Date:

Astronomy

Dec. 02, 2012 Rise Set
Actual Time 6:54 AM EST 3:46 PM EST
Civil Twilight 6:20 AM EST 4:20 PM EST
Nautical Twilight 5:43 AM EST 4:58 PM EST
Astronomical Twilight 5:06 AM EST 5:34 PM EST
Moon 7:36 PM EST (12/2) 9:37 AM EST (12/2)
Length of Visible Light 10h 00m
Length of Day
8h 51m
Waning Gibbous, 86% of the Moon is Illuminated
Dec 2
Waning Gibbous
Dec 6
Last Quarter
Dec 13
New
Dec 20
First Quarter
Dec 28
Full

Hourly Weather History & Observations

Time (EST) Temp. Windchill Dew Point Humidity Pressure Visibility Wind Dir Wind Speed Gust Speed Precip Events Conditions
12:53 AM 21.9 °F - 9.0 °F 58% 30.54 in 10.0 mi Calm Calm - N/A   Overcast
1:53 AM 21.9 °F 15.7 °F 14.0 °F 72% 30.52 in 6.0 mi Variable 4.6 mph - N/A   Haze
2:07 AM 21.2 °F - 15.8 °F 80% 30.49 in 4.0 mi Calm Calm - N/A   Haze
2:53 AM 23.0 °F - 18.0 °F 81% 30.49 in 3.0 mi Calm Calm - 0.00 in Snow Light Snow
3:43 AM 24.8 °F 19.1 °F 21.2 °F 86% 30.43 in 3.0 mi South 4.6 mph - 0.00 in Snow Light Snow
3:53 AM 26.1 °F 20.5 °F 21.9 °F 84% 30.46 in 2.0 mi Variable 4.6 mph - 0.00 in Snow Light Snow
4:11 AM 26.6 °F 22.6 °F 23.0 °F 86% 30.42 in 3.0 mi Variable 3.5 mph - 0.00 in Snow Light Snow
4:33 AM 28.4 °F 21.2 °F 24.8 °F 86% 30.41 in 2.5 mi South 6.9 mph - 0.01 in Snow Light Snow
4:44 AM 28.4 °F 23.3 °F 24.8 °F 86% 30.40 in 3.0 mi Variable 4.6 mph - 0.01 in Snow Light Snow
4:53 AM 28.9 °F 23.9 °F 25.0 °F 85% 30.43 in 3.0 mi Variable 4.6 mph - 0.01 in Snow Light Snow
5:14 AM 30.2 °F 25.4 °F 26.6 °F 86% 30.40 in 2.5 mi Variable 4.6 mph - 0.01 in Snow Light Snow
5:37 AM 30.2 °F 25.4 °F 26.6 °F 86% 30.39 in 3.0 mi Variable 4.6 mph - 0.01 in Snow Light Snow
5:50 AM 30.2 °F 24.3 °F 26.6 °F 86% 30.39 in 2.5 mi Variable 5.8 mph - 0.01 in Snow Light Snow
5:53 AM 30.0 °F 25.2 °F 27.0 °F 88% 30.41 in 2.0 mi South 4.6 mph - 0.02 in Snow Light Snow
6:01 AM 30.2 °F 25.4 °F 28.4 °F 93% 30.38 in 1.5 mi South 4.6 mph - 0.00 in Snow Light Snow
6:08 AM 30.2 °F 24.3 °F 28.4 °F 93% 30.38 in 2.0 mi South 5.8 mph - 0.00 in Snow Light Snow
6:17 AM 30.2 °F 23.4 °F 28.4 °F 93% 30.38 in 4.0 mi South 6.9 mph - 0.01 in Snow Light Snow
6:53 AM 33.1 °F 24.9 °F 30.0 °F 89% 30.39 in 2.5 mi South 10.4 mph - 0.01 in Snow Light Snow
7:00 AM 33.8 °F 27.0 °F 30.2 °F 87% 30.36 in 3.0 mi South 8.1 mph - 0.01 in Snow Light Snow
7:53 AM 34.0 °F 26.0 °F 30.9 °F 89% 30.36 in 4.0 mi South 10.4 mph 18.4 mph 0.02 in Snow Light Snow
8:53 AM 35.1 °F 30.1 °F 32.0 °F 89% 30.35 in 5.0 mi South 5.8 mph - 0.02 in   Overcast
9:53 AM 36.0 °F 29.6 °F 34.0 °F 93% 30.32 in 5.0 mi South 8.1 mph - 0.00 in   Overcast
10:20 AM 37.4 °F 29.8 °F 35.6 °F 93% 30.28 in 2.5 mi South 11.5 mph 19.6 mph 0.01 in Rain Light Rain
10:45 AM 37.4 °F 29.8 °F 35.6 °F 93% 30.26 in 1.5 mi South 11.5 mph 19.6 mph 0.03 in   Overcast
10:53 AM 37.9 °F 32.7 °F 35.1 °F 89% 30.28 in 1.8 mi South 6.9 mph 19.6 mph 0.03 in   Overcast
11:00 AM 37.4 °F 31.4 °F 35.6 °F 93% 30.25 in 2.0 mi South 8.1 mph - 0.00 in Rain Light Rain
11:53 AM 39.0 °F 32.3 °F 36.0 °F 89% 30.23 in 2.5 mi South 10.4 mph 16.1 mph 0.01 in Rain Light Rain
12:14 PM 39.2 °F 33.6 °F 37.4 °F 93% 30.20 in 3.0 mi South 8.1 mph - 0.01 in Rain Light Rain
12:53 PM 41.0 °F 35.2 °F 37.9 °F 89% 30.19 in 3.0 mi South 9.2 mph - 0.02 in   Overcast
1:00 PM 41.0 °F 35.2 °F 39.2 °F 93% 30.16 in 2.5 mi South 9.2 mph 19.6 mph 0.00 in Rain Light Rain
1:08 PM 41.0 °F 35.8 °F 39.2 °F 93% 30.16 in 4.0 mi South 8.1 mph 17.3 mph 0.00 in   Overcast
1:30 PM 42.8 °F 38.0 °F 39.2 °F 87% 30.14 in 5.0 mi South 8.1 mph 17.3 mph 0.00 in   Overcast
1:53 PM 42.1 °F 36.1 °F 39.9 °F 92% 30.14 in 4.0 mi South 10.4 mph 19.6 mph 0.00 in   Overcast
2:53 PM 44.1 °F 39.0 °F 42.1 °F 93% 30.12 in 4.0 mi South 9.2 mph 20.7 mph 0.00 in Rain Light Rain
3:30 PM 44.6 °F 39.7 °F 42.8 °F 93% 30.09 in 7.0 mi South 9.2 mph 19.6 mph 0.00 in   Overcast
3:53 PM 45.0 °F 39.3 °F 43.0 °F 93% 30.09 in 8.0 mi South 11.5 mph 20.7 mph 0.00 in   Overcast
4:53 PM 46.0 °F 41.4 °F 43.0 °F 89% 30.07 in 10.0 mi South 9.2 mph 18.4 mph N/A   Overcast
5:53 PM 46.0 °F 41.0 °F 43.0 °F 89% 30.03 in 10.0 mi South 10.4 mph 19.6 mph N/A   Overcast
6:03 PM 46.4 °F 41.5 °F 44.6 °F 93% 30.01 in 10.0 mi South 10.4 mph 18.4 mph N/A   Overcast
6:18 PM 46.4 °F 41.9 °F 42.8 °F 87% 30.00 in 10.0 mi South 9.2 mph 19.6 mph N/A   Overcast
6:53 PM 46.9 °F - 44.1 °F 90% 30.01 in 10.0 mi South 9.2 mph - N/A   Overcast
7:02 PM 46.4 °F 41.9 °F 44.6 °F 93% 29.99 in 10.0 mi South 9.2 mph - N/A   Overcast
7:25 PM 46.4 °F 42.9 °F 44.6 °F 93% 29.98 in 9.0 mi South 6.9 mph - N/A Rain Light Rain
7:45 PM 46.4 °F 42.9 °F 44.6 °F 93% 29.96 in 7.0 mi South 6.9 mph - 0.01 in Rain Light Rain
7:53 PM 46.9 °F - 44.1 °F 90% 29.98 in 6.0 mi South 6.9 mph - 0.01 in Rain Light Rain
8:09 PM 46.4 °F 42.4 °F 44.6 °F 93% 29.94 in 7.0 mi South 8.1 mph - 0.01 in Rain Light Rain
8:53 PM 48.0 °F - 45.0 °F 89% 29.93 in 6.0 mi South 10.4 mph 18.4 mph 0.03 in Rain Light Rain
9:32 PM 48.2 °F - 44.6 °F 87% 29.88 in 6.0 mi Variable 6.9 mph - 0.04 in Rain Light Rain
9:53 PM 48.0 °F - 45.0 °F 89% 29.88 in 7.0 mi South 12.7 mph 19.6 mph 0.05 in Rain Light Rain
10:48 PM 48.2 °F - 44.6 °F 87% 29.85 in 6.0 mi SSW 11.5 mph 20.7 mph 0.07 in Rain Light Rain
10:53 PM 48.0 °F - 45.0 °F 89% 29.86 in 7.0 mi SSW 6.9 mph 20.7 mph 0.07 in Rain Light Rain
11:42 PM 48.2 °F - 44.6 °F 87% 29.84 in 7.0 mi SW 11.5 mph 19.6 mph 0.04 in Rain Light Rain
11:53 PM 46.9 °F - 44.1 °F 90% 29.85 in 9.0 mi SW 13.8 mph 20.7 mph 0.04 in Rain Light Rain